www.pogodaiklimat.ru

Погода и климат >> Архив погоды >> Антарктида >> McMurdo


АРХИВ ПОГОДЫ в McMurdo

Время (UTC), дата Ветер
(напр.,м/с)
 
Видим.   Явления Облачность Т
(С)
Тd
(С)
f
(%)
Тe
(С)
Тes
(С)
Комфортность P
(гПа)
Po
(гПа)
Тmin
(С)
Tmax
(С)
R
(мм)
R24
(мм)
S
(см)
12 11.08 В 6 11 км ледяные иглы {снег} ясно -30.0 -34.5 65 -43 -43 опасность
обморожения
978.1 973.6 -32.7 -27.0 0.0
18 11.08 В 8 11 км ледяные иглы {снег} ясно -29.9 -34.6 63 -45 -45 опасность
обморожения
979.3 974.8 0.0
00 12.08 штиль 0 11 км {снег} 9/9 900 м
[Sc]
-29.5 -34.8 60 -30 -30 по сезону 981.8 977.3 -29.7 -26.3 0.0
06 12.08 штиль 0 11 км слабый снег 8/8 1200 м
[Sc]
-27.6 -32.5 63 -28 -28 по сезону 983.7 979.2
12 12.08 СВ 7 6000 м слабый снег туман 10/10 960 м
[Sc]
-27.6 -32.2 65 -41 -41 опасность
обморожения
984.1 979.6 -29.6 -26.1 0.3
18 12.08 нст 3 11 км {снег} ясно -24.7 -29.3 65 -32 -32 опасность
обморожения
983.5 979.0 0.3
00 13.08 В 6 4000 м слабый снег {метель} 10/0 2000 м
[As op]
-28.2 -32.5 66 -41 -41 опасность
обморожения
985.0 980.5 -29.3 -24.3
06 13.08 ЮВ 14 200 м слабый снег {метель} туман ?/? -26.6 -30.5 69 -44 -44 опасность
обморожения
983.6 979.1
12 13.08 ЮВ 14 100 м слабый снег {метель} туман ?/? -24.0 -27.5 73 -41 -41 опасность
обморожения
980.5 976.0 -27.8 -23.9 1
18 13.08 Ю 17 200 м слабый снег {метель} туман ?/? -21.5 -22.0 96 -39 -39 опасность
обморожения
976.3 971.9
00 14.08 ЮВ 7 11 км слабый снег {метель} 10/3 900 м
[Sc As op]
-17.5 -17.5 100 -28 -28 по сезону 975.0 970.7 -23.9 -17.5
06 14.08 В 6 11 км слабый снег 10/10 1500 м
[Sc]
-17.0 -17.0 100 -27 -27 по сезону 972.9 968.6
12 14.08 В 6 11 км {снег} 10/0 2000 м
[As op]
-13.0 -13.0 100 -22 -22 тепло 969.4 965.2 -17.9 -13.0 1
18 14.08 ЮВ 8 11 км 10/0 2000 м
[As op]
-15.6 -15.6 100 -27 -27 по сезону 969.1 964.8
00 15.08 ЮВ 7 11 км слабый снег 10/10 1350 м
[Sc]
-14.8 -14.8 100 -25 -25 тепло 971.8 967.5 -16.9 -12.4
06 15.08 СВ 12 400 м слабый снег {метель} туман ?/? -19.2 -19.3 99 -33 -33 опасность
обморожения
977.2 972.9
12 15.08 штиль 0 11 км слабый снег {метель} 10/10 1020 м
[Sc]
-14.2 -14.2 100 -14 -14 тепло 975.2 971.0 -19.4 -14.1 0.0
18 15.08 ЮВ 4 11 км {снег} 10/3 1350 м
[Sc As op]
-11.4 -11.4 100 -19 -19 тепло 975.5 971.2
00 16.08 Ю 8 11 км в посл. час снег 9/1 300 м
[St Ac As]
-11.9 -14.4 82 -22 -22 тепло 978.2 973.9 -14.8 -10.9
06 16.08 ЮВ 6 11 км 9/0 2000 м
[Ac As]
-12.2 -15.3 78 -21 -21 тепло 981.2 976.9
12 16.08 СВ 4 11 км 10/10 1500 м
[Sc]
-12.6 -17.5 67 -20 -20 тепло 983.1 978.8 -13.0 -11.5 0.0
00 17.08 СВ 7 11 км 10/1 1050 м
[Sc As op]
-13.1 -21.0 51 -23 -23 тепло 989.3 984.9 -15.2 -11.6
06 17.08 СВ 8 11 км 10/8 1500 м
[Sc As op]
-16.8 -23.5 56 -28 -28 по сезону 993.2 988.8
12 17.08 СВ 11 11 км слабый снег туман 10/10 840 м
[Sc]
-19.6 -23.8 69 -33 -33 опасность
обморожения
998.2 993.8 -20.1 -13.0 0.0
18 17.08 В 11 11 км {снег} 10/10 1500 м
[Sc]
-20.5 -26.0 61 -35 -35 опасность
обморожения
1003.2 998.7
00 18.08 В 10 11 км позёмок 10/1 1500 м
[Sc Cs]
-22.8 -27.2 67 -37 -37 опасность
обморожения
1006.4 1001.9 -23.0 -19.6
06 18.08 В 4 11 км слабый снег 10/0 2000 м
[As op]
-24.0 -28.0 69 -33 -33 опасность
обморожения
1009.5 1005.0

 

Местоположение метеостанции McMurdo (Антарктида): широта -77.85 долгота 166.66 высота над уровнем моря 24 м.

В архиве по умолчанию представлена погода в McMurdo за последнюю неделю. Архивные данные за месяц целиком и за предыдущие месяцы, начиная с января 2011 года, Вы можете получить, выбрав интересующий диапазон дат из раскрывающегося списка и нажав кнопку "Ввод!".

Внимание! Время в таблицах - всемирное. Для получения местного времени необходимо прибавить поправку, которая в McMurdo равна 0 ч.

Смотрите также архив погоды в соседних городах и на ближайших метеорологических станциях:

Погода в Pegasus North (Антарктида) (12 км)
Погода в Linda (Антарктида) (78 км)
Погода в Minna Bluff (Антарктида) (78 км)
Погода в Marble Point (Антарктида) (84 км)
Погода в Ferrell (Антарктида) (97 км)
Погода в Arelis (Italy 7357) (Антарктида) (156 км)
Погода в Marilyn (Антарктида) (236 км)
Погода в Schwerdtfeger (Антарктида) (236 км)
Погода в Manuela (Антарктида) (333 км)
Погода в Eneide (Italy 7353) (Антарктида) (357 км)

Пояснения к столбцам:

Ветер - указаны скорость ветра в м/с - средняя за 10 мин, порывы в срок и между сроками (в фигурных скобках) и направление, откуда дует ветер: С - северный, СВ - северо-восточный, В - восточный, ЮВ - юго-восточный, Ю - южный, ЮЗ - юго-западный, З - западный, СЗ - северо-западный.
Видимость - горизонтальная дальность видимости в метрах или километрах. При видимости от 1 до 10 км при отсутствии осадков обычно наблюдается дымка, при ухудшении видимости до 1 км и менее - туман. В сухую погоду видимость может ухудшаться дымом, пылью или мглою.
Явления - указаны атмосферные явления, наблюдавшиеся в срок или в последний час перед сроком; фигурными скобками обозначены явления, наблюдавшиеся между сроками (за 1-3 часа до срока); квадратными скобками обозначены град или гололедные отложения с указанием их диаметра в мм.
Облачность - указаны через наклонную черту общая и нижняя облачность в баллах и высота нижней границы облаков в метрах; квадратными скобками обозначены формы облаков: Ci - перистые, Cs - перисто-слоистые, Cc - перисто-кучевые, Ac - высококучевые, As - высокослоистые, Sc - слоисто-кучевые, Ns - слоисто-дождевые, Cu - кучевые, Cb - кучево-дождевые. Подробнее классификацию облаков см. в Атласе облаков (PDF).
T - Температура воздуха - температура, измеренная на высоте 2 м над землей.
Td - Температура точки росы - температура, при понижении до которой содержащийся в воздухе водяной пар достигнет насыщения.
f - Относительная влажность воздуха - влажноcть воздуха, измеренная на высоте 2 м над землей.
Te - Эффективная температура - температура, которую ощущает одетый по сезону человек в тени. Характеристика душности погоды. При расчете учитывается влияние влажности воздуха и скорости ветра на теплоощущения человека.
Tes - Эффективная температура на солнце - температура, которую ощущает человек, с поправкой на солнечный нагрев. Характеристика знойности погоды. Зависит от высоты солнца над горизонтом, облачности и скорости ветра. Ночью, в пасмурную погоду, а также при ветре 12 м/с и более поправка равна нулю.
P - Атмосферное давление - приведенное к уровню моря атмосферное давление.
Po - Атмосферное давление - измеренное на уровне метеостанции атмосферное давление.
Tmin - Минимальная температура - минимум температуры воздуха на высоте 2 м над землей.
Tmax - Максимальная температура - максимум температуры воздуха на высоте 2 м над землей.
R - Количество осадков - Количество выпавших осадков за период времени, мм. При наведении курсора мыши на число - период времени, за который выпало указанное количество осадков.
R24 - Количество осадков - Количество выпавших осадков за 24 часа, мм.
S - Снежный покров - Высота снежного покрова, см. При наведении курсора мыши на число - состояние снежного покрова и степень покрытия местности в баллах.